Epoch,demod_status_bits,ebno,lock_status,signal_level,viterbi_ber
1663092563,,13.2,0x00c000,-39.0,
1663092564,C;S;V;F,13.0,0x00c000,-38.8,1.51e-7
1663092565,C;S;V;F,,0x00c000,-38.9,1.51e-7
1663092566,C;S;V;F,13.4,0x00c000,-38.5,0.00e-0
1663092567,C;S;V;F,13.4,0x00c000,,0.00e-0
1663092568,C;S;V;F,13.6,0x00c000,-39.2,0.00e-0
1663092569,C;S;V;F,12.8,0x00c000,-39.3,1.51e-7
1663092570,C;S;V;F,13.5,0x00c000,-38.4,1.51e-7
1663092571,C;S;V;F,13.7,0x00c000,-38.8,0.00e-0
1663092572,C;S;V;F,13.0,0x00c000,-38.9,0.00e-0
1663092573,C;S;V;F,13.5,0x00c000,-38.4,0.00e-0
1663092574,C;S;V;F,13.8,0x00c000,-38.7,0.00e-0
1663092575,C;S;V;F,13.5,0x00c000,-38.5,0.00e-0
1663092576,C;S;V;F,13.9,0x00c000,-38.4,0.00e-0
1663092577,C;S;V;F,13.6,0x00c000,-38.7,0.00e-0
1663092578,C;S;V;F,13.3,0x00c000,-38.8,
1663092579,C;S;V;F,13.6,0x00c000,-38.1,0.00e-0
1663092580,,14.0,0x00c000,-38.1,0.00e-0
1663092581,C;S;V;F,14.1,0x00c000,-38.0,0.00e-0
1663092582,C;S;V;F,14.5,0x00c000,-37.8,0.00e-0
1663092583,C;S;V;F,,0x00c000,-37.9,0.00e-0
1663092584,C;S;V;F,14.4,0x00c000,,0.00e-0
1663092585,C;S;V;F,14.4,0x00c000,-38.0,0.00e-0
1663092586,C;S;V;F,14.4,0x00c000,-37.9,0.00e-0
1663092587,C;S;V;F,14.3,0x00c000,-37.8,0.00e-0
1663092588,C;S;V;F,14.4,0x00c000,-37.9,0.00e-0
1663092589,C;S;V;F,14.3,0x00c000,-37.8,0.00e-0
1663092590,C;S;V;F,14.9,0x00c000,-37.6,0.00e-0
1663092591,C;S;V;F,14.9,0x00c000,-37.4,0.00e-0
1663092592,C;S;V;F,15.0,0x00c000,-37.5,0.00e-0
1663092593,,14.5,0x00c000,-37.7,
1663092594,C;S;V;F,14.7,0x00c000,-37.7,0.00e-0
1663092595,C;S;V;F,,0x00c000,,0.00e-0
1663092597,C;S;V;F,15.0,0x00c000,-37.1,0.00e-0
1663092598,,15.2,0x00c000,-37.2,
1663092599,C;S;V;F,15.0,0x00c000,-37.2,0.00e-0
1663092600,C;S;V;F,15.0,0x00c000,-37.2,0.00e-0
1663092601,C;S;V;F,15.1,0x00c000,-37.2,0.00e-0
1663092602,C;S;V;F,,0x00c000,-37.1,0.00e-0
1663092603,C;S;V;F,15.3,0x00c000,,0.00e-0
1663092604,C;S;V;F,15.1,0x00c000,-36.9,0.00e-0
1663092605,C;S;V;F,15.4,0x00c000,-36.9,0.00e-0
1663092606,C;S;V;F,15.4,0x00c000,-36.9,0.00e-0
1663092607,C;S;V;F,15.4,0x00c000,-36.9,0.00e-0
1663092608,C;S;V;F,15.6,0x00c000,-36.9,0.00e-0
1663092609,C;S;V;F,15.5,0x00c000,-36.9,0.00e-0
1663092610,C;S;V;F,15.4,0x00c000,-36.9,0.00e-0
1663092611,C;S;V;F,15.4,0x00c000,-36.8,0.00e-0
1663092612,C;S;V;F,15.4,0x00c000,-37.0,0.00e-0
1663092613,C;S;V;F,15.3,0x00c000,-36.8,0.00e-0
1663092614,C;S;V;F,15.5,0x00c000,-36.7,
1663092615,,15.6,0x00c000,-36.7,0.00e-0
1663092616,C;S;V;F,15.6,0x00c000,-37.0,0.00e-0
1663092617,C;S;V;F,15.6,0x00c000,-36.7,0.00e-0
1663092618,C;S;V;F,,0x00c000,-37.0,0.00e-0
1663092619,C;S;V;F,15.4,0x00c000,-36.7,0.00e-0
1663092620,C;S;V;F,15.7,0x00c000,,0.00e-0
1663092621,C;S;V;F,15.5,0x00c000,-36.9,0.00e-0
1663092622,C;S;V;F,15.5,0x00c000,-36.9,0.00e-0
1663092623,C;S;V;F,15.4,0x00c000,-37.0,0.00e-0
1663092624,C;S;V;F,15.5,0x00c000,-36.8,0.00e-0
1663092625,C;S;V;F,15.4,0x00c000,-36.8,0.00e-0
1663092626,C;S;V;F,15.7,0x00c000,-36.4,
1663092627,,15.8,0x00c000,-36.7,0.00e-0
1663092628,C;S;V;F,15.7,0x00c000,-36.7,0.00e-0
1663092629,C;S;V;F,15.7,0x00c000,-36.7,0.00e-0
1663092630,C;S;V;F,,0x00c000,-36.7,0.00e-0
1663092631,C;S;V;F,15.8,0x00c000,-36.4,0.00e-0
1663092632,C;S;V;F,16.0,0x00c000,,0.00e-0
1663092633,C;S;V;F,15.9,0x00c000,-36.5,0.00e-0
1663092634,C;S;V;F,15.7,0x00c000,-36.7,0.00e-0
1663092635,C;S;V;F,16.2,0x00c000,-36.4,0.00e-0
1663092636,C;S;V;F,15.9,0x00c000,-36.4,0.00e-0
1663092637,C;S;V;F,16.2,0x00c000,-36.4,0.00e-0
1663092638,C;S;V;F,16.2,0x00c000,-36.4,0.00e-0
1663092639,,16.2,0x00c000,-36.3,
1663092640,C;S;V;F,16.2,0x00c000,-36.3,0.00e-0
1663092641,C;S;V;F,16.3,0x00c000,-36.3,0.00e-0
1663092642,C;S;V;F,,0x00c000,-36.3,0.00e-0
1663092643,C;S;V;F,16.3,0x00c000,,0.00e-0
1663092644,C;S;V;F,16.2,0x00c000,-36.2,0.00e-0
1663092645,C;S;V;F,16.2,0x00c000,-36.0,0.00e-0
1663092646,C;S;V;F,16.3,0x00c000,-36.1,0.00e-0
1663092647,C;S;V;F,16.2,0x00c000,-36.2,0.00e-0
1663092648,C;S;V;F,16.4,0x00c000,-36.1,0.00e-0
1663092649,C;S;V;F,16.4,0x00c000,-36.1,0.00e-0
1663092650,C;S;V;F,16.3,0x00c000,-36.1,0.00e-0
1663092651,C;S;V;F,16.3,0x00c000,-36.1,0.00e-0
1663092652,C;S;V;F,16.5,0x00c000,-36.3,0.00e-0
1663092653,C;S;V;F,16.2,0x00c000,-36.0,
1663092654,,16.5,0x00c000,-36.0,0.00e-0
1663092655,C;S;V;F,16.4,0x00c000,-36.0,0.00e-0
1663092656,C;S;V;F,16.1,0x00c000,-36.2,0.00e-0
1663092657,C;S;V;F,16.3,0x00c000,-36.2,0.00e-0
1663092658,C;S;V;F,,0x00c000,,0.00e-0
1663092660,C;S;V;F,16.5,0x00c000,-36.0,0.00e-0
1663092661,C;S;V;F,16.4,0x00c000,-35.9,0.00e-0
1663092662,C;S;V;F,16.7,0x00c000,-36.0,
1663092663,,16.4,0x00c000,-36.0,0.00e-0
1663092664,C;S;V;F,16.5,0x00c000,-36.2,0.00e-0
1663092665,C;S;V;F,16.7,0x00c000,-36.2,0.00e-0
1663092666,C;S;V;F,,0x00c000,-36.0,0.00e-0
1663092667,C;S;V;F,16.5,0x00c000,,0.00e-0
1663092668,C;S;V;F,16.7,0x00c000,-36.0,0.00e-0
1663092669,C;S;V;F,16.4,0x00c000,-36.0,0.00e-0
1663092670,C;S;V;F,16.4,0x00c000,-36.0,0.00e-0
1663092671,C;S;V;F,16.4,0x00c000,-36.3,0.00e-0
1663092672,C;S;V;F,16.5,0x00c000,-36.0,0.00e-0
1663092673,C;S;V;F,16.4,0x00c000,-36.3,0.00e-0
1663092674,C;S;V;F,16.2,0x00c000,-36.2,0.00e-0
1663092675,,16.5,0x00c000,-36.0,
1663092676,C;S;V;F,16.5,0x00c000,-36.0,0.00e-0
1663092677,C;S;V;F,16.4,0x00c000,-36.0,0.00e-0
1663092678,C;S;V;F,16.6,0x00c000,-36.0,0.00e-0
1663092679,C;S;V;F,16.1,0x00c000,-36.3,0.00e-0
1663092680,C;S;V;F,,0x00c000,-36.1,0.00e-0
1663092681,C;S;V;F,16.1,0x00c000,-36.0,0.00e-0
1663092682,C;S;V;F,16.4,0x00c000,,0.00e-0
1663092683,C;S;V;F,16.2,0x00c000,-36.3,0.00e-0
1663092684,C;S;V;F,16.4,0x00c000,-36.2,0.00e-0
1663092685,C;S;V;F,16.2,0x00c000,-36.4,0.00e-0
1663092686,C;S;V;F,16.3,0x00c000,-36.1,0.00e-0
1663092687,C;S;V;F,16.4,0x00c000,-36.3,0.00e-0
1663092688,C;S;V;F,16.2,0x00c000,-36.4,0.00e-0
1663092689,C;S;V;F,16.3,0x00c000,-36.4,0.00e-0
1663092690,C;S;V;F,16.2,0x00c000,-36.4,
1663092691,,16.3,0x00c000,-36.4,0.00e-0
1663092692,C;S;V;F,16.1,0x00c000,-36.3,0.00e-0
1663092693,C;S;V;F,,0x00c000,-36.4,0.00e-0
1663092694,C;S;V;F,16.2,0x00c000,,0.00e-0
1663092695,C;S;V;F,16.3,0x00c000,-36.4,0.00e-0
1663092696,C;S;V;F,16.2,0x00c000,-36.4,0.00e-0
1663092697,C;S;V;F,16.1,0x00c000,-36.4,0.00e-0
1663092698,C;S;V;F,16.4,0x00c000,-36.4,0.00e-0
1663092699,C;S;V;F,16.2,0x00c000,-36.4,0.00e-0
1663092700,C;S;V;F,16.4,0x00c000,-36.3,0.00e-0
1663092701,C;S;V;F,16.3,0x00c000,-36.3,0.00e-0
1663092702,C;S;V;F,16.3,0x00c000,-36.3,0.00e-0
1663092703,C;S;V;F,16.3,0x00c000,-36.3,0.00e-0
1663092704,C;S;V;F,16.3,0x00c000,-36.4,0.00e-0
1663092705,C;S;V;F,16.3,0x00c000,-36.4,0.00e-0
1663092706,C;S;V;F,16.4,0x00c000,-36.6,0.00e-0
1663092707,C;S;V;F,16.2,0x00c000,-36.3,
1663092708,,16.1,0x00c000,-36.4,0.00e-0
1663092709,C;S;V;F,16.2,0x00c000,-36.4,0.00e-0
1663092710,C;S;V;F,16.1,0x00c000,-36.4,0.00e-0
1663092711,C;S;V;F,16.1,0x00c000,-36.7,0.00e-0
1663092712,C;S;V;F,,0x00c000,-36.6,0.00e-0
1663092713,C;S;V;F,16.0,0x00c000,,0.00e-0
1663092714,C;S;V;F,16.2,0x00c000,-36.5,0.00e-0
1663092715,C;S;V;F,16.2,0x00c000,-36.8,0.00e-0
1663092716,C;S;V;F,15.9,0x00c000,-36.7,0.00e-0
1663092717,C;S;V;F,16.0,0x00c000,-36.8,0.00e-0
1663092718,C;S;V;F,16.2,0x00c000,-36.5,0.00e-0
1663092719,C;S;V;F,16.1,0x00c000,-36.5,0.00e-0
1663092720,C;S;V;F,16.2,0x00c000,-36.6,0.00e-0
1663092723,C;S;V;F,16.2,0x00c000,-36.3,0.00e-0
1663092724,C;S;V;F,16.3,0x00c000,-36.3,0.00e-0
1663092725,C;S;V;F,16.4,0x00c000,-36.3,0.00e-0
1663092726,C;S;V;F,16.2,0x00c000,-36.4,0.00e-0
1663092727,C;S;V;F,16.5,0x00c000,-36.2,0.00e-0
1663092728,C;S;V;F,16.4,0x00c000,-36.4,0.00e-0
1663092729,C;S;V;F,16.3,0x00c000,-36.3,0.00e-0
1663092730,C;S;V;F,16.6,0x00c000,-36.2,0.00e-0
1663092731,C;S;V;F,16.4,0x00c000,-36.4,
1663092732,,16.5,0x00c000,-36.3,0.00e-0
1663092733,C;S;V;F,16.3,0x00c000,-36.4,0.00e-0
1663092734,C;S;V;F,16.2,0x00c000,-36.4,0.00e-0
1663092735,C;S;V;F,,0x00c000,-36.4,0.00e-0
1663092736,C;S;V;F,16.2,0x00c000,-36.4,0.00e-0
1663092737,C;S;V;F,16.5,0x00c000,,0.00e-0
1663092738,C;S;V;F,16.3,0x00c000,-36.4,0.00e-0
1663092739,C;S;V;F,16.3,0x00c000,-36.4,0.00e-0
1663092740,C;S;V;F,16.3,0x00c000,-36.4,0.00e-0
1663092741,C;S;V;F,16.5,0x00c000,-36.3,0.00e-0
1663092742,C;S;V;F,16.4,0x00c000,-36.4,0.00e-0
1663092743,C;S;V;F,16.4,0x00c000,-36.3,0.00e-0
1663092744,C;S;V;F,16.5,0x00c000,-36.4,0.00e-0
1663092745,C;S;V;F,16.3,0x00c000,-36.4,0.00e-0
1663092746,C;S;V;F,16.5,0x00c000,-36.4,0.00e-0
1663092747,C;S;V;F,16.5,0x00c000,-36.3,
1663092748,,16.4,0x00c000,-36.5,0.00e-0
1663092749,C;S;V;F,16.4,0x00c000,-36.4,0.00e-0
1663092750,C;S;V;F,,0x00c000,-36.7,0.00e-0
1663092751,C;S;V;F,16.4,0x00c000,-36.4,0.00e-0
1663092752,C;S;V;F,16.3,0x00c000,,0.00e-0
1663092753,C;S;V;F,16.5,0x00c000,-36.4,0.00e-0
1663092754,C;S;V;F,16.3,0x00c000,-36.4,0.00e-0
1663092755,C;S;V;F,16.4,0x00c000,-36.4,0.00e-0
1663092756,C;S;V;F,16.4,0x00c000,-36.4,0.00e-0
1663092757,C;S;V;F,16.2,0x00c000,-36.4,0.00e-0
1663092758,C;S;V;F,16.3,0x00c000,-36.4,0.00e-0
1663092759,C;S;V;F,16.3,0x00c000,-36.4,0.00e-0
1663092760,C;S;V;F,16.5,0x00c000,-36.4,0.00e-0
1663092761,C;S;V;F,16.2,0x00c000,-36.4,0.00e-0
1663092762,C;S;V;F,16.3,0x00c000,-36.5,0.00e-0
1663092763,C;S;V;F,16.4,0x00c000,-36.4,0.00e-0
1663092764,C;S;V;F,16.1,0x00c000,-36.7,
1663092765,,16.2,0x00c000,-36.7,0.00e-0
1663092766,C;S;V;F,16.0,0x00c000,-36.8,0.00e-0
1663092767,C;S;V;F,16.1,0x00c000,-36.8,0.00e-0
1663092768,C;S;V;F,,0x00c000,-36.7,0.00e-0
1663092769,C;S;V;F,16.1,0x00c000,-36.7,0.00e-0
1663092770,C;S;V;F,16.2,0x00c000,,0.00e-0
1663092771,C;S;V;F,16.3,0x00c000,-36.8,0.00e-0
1663092772,C;S;V;F,16.4,0x00c000,-36.7,0.00e-0
1663092773,C;S;V;F,16.1,0x00c000,-36.8,0.00e-0
1663092774,C;S;V;F,16.0,0x00c000,-36.8,0.00e-0
1663092775,C;S;V;F,16.1,0x00c000,-36.8,0.00e-0
1663092776,C;S;V;F,16.0,0x00c000,-37.0,0.00e-0
1663092777,C;S;V;F,15.8,0x00c000,-37.1,0.00e-0
1663092778,C;S;V;F,15.6,0x00c000,-37.4,
1663092779,,15.4,0x00c000,-37.3,0.00e-0
1663092780,C;S;V;F,15.4,0x00c000,-37.6,0.00e-0
1663092781,C;S;V;F,14.9,0x00c000,-37.9,0.00e-0
1663092782,C;S;V;F,,0x00c000,-38.0,0.00e-0
1663092783,C;S;V;F,14.8,0x00c000,,0.00e-0
1663092785,,14.5,0x00c000,-38.4,
1663092786,C;S;V;F,,0x00c000,-38.7,0.00e-0
1663092787,C;S;V;F,14.5,0x00c000,,0.00e-0
1663092788,C;S;V;F,13.8,0x00c000,-39.4,0.00e-0
1663092789,C;S;V;F,13.5,0x00c000,-39.5,0.00e-0
1663092790,C;S;V;F,13.3,0x00c000,-39.9,1.51e-7
1663092791,C;S;V;F,13.1,0x00c000,-39.9,1.51e-7
1663092792,,13.0,0x00c000,-40.2,
1663092793,C;S;V;F,12.5,0x00c000,-40.7,3.03e-7
1663092794,C;S;V;F,11.9,0x00c000,-40.9,7.57e-7
1663092795,C;S;V;F,11.9,0x00c000,-41.1,2.42e-6
1663092796,C;S;V;F,,0x00c000,-41.1,4.84e-6
1663092797,C;S;V;F,11.8,0x00c000,-40.9,5.44e-6
1663092798,C;S;V;F,12.1,0x00c000,,4.84e-6
1663092799,C;S;V;F,12.3,0x00c000,-40.5,2.42e-6
1663092800,C;S;V;F,12.1,0x00c000,-40.7,2.11e-6
1663092801,C;S;V;F,12.2,0x00c000,-40.4,1.81e-6
1663092802,C;S;V;F,12.8,0x00c000,-40.4,9.09e-7
1663092803,C;S;V;F,12.9,0x00c000,-40.2,4.54e-7
1663092804,C;S;V;F,12.9,0x00c000,-40.2,4.54e-7
1663092805,C;S;V;F,12.8,0x00c000,-40.0,3.03e-7
1663092806,,12.9,0x00c000,-40.0,
1663092807,C;S;V;F,12.9,0x00c000,-39.9,1.51e-7
1663092808,C;S;V;F,,0x00c000,-39.7,1.51e-7
1663092809,C;S;V;F,13.2,0x00c000,,1.51e-7
1663092810,C;S;V;F,13.2,0x00c000,-39.6,0.00e-0
1663092811,C;S;V;F,13.5,0x00c000,-39.5,0.00e-0
1663092812,C;S;V;F,13.4,0x00c000,-39.6,0.00e-0
1663092813,C;S;V;F,13.6,0x00c000,-39.6,0.00e-0
1663092814,C;S;V;F,13.3,0x00c000,-39.7,0.00e-0
1663092815,C;S;V;F,13.4,0x00c000,-39.6,0.00e-0
1663092816,C;S;V;F,13.6,0x00c000,-39.5,0.00e-0
1663092817,C;S;V;F,13.7,0x00c000,-39.4,
1663092818,,14.1,0x00c000,-39.3,0.00e-0
1663092819,C;S;V;F,14.2,0x00c000,-38.8,0.00e-0
1663092820,C;S;V;F,,0x00c000,-38.7,0.00e-0
1663092821,C;S;V;F,14.4,0x00c000,,0.00e-0
1663092822,C;S;V;F,14.6,0x00c000,-38.2,0.00e-0
1663092823,C;S;V;F,15.0,0x00c000,-38.0,0.00e-0
1663092824,C;S;V;F,14.9,0x00c000,-37.8,0.00e-0
1663092825,C;S;V;F,15.0,0x00c000,-37.8,0.00e-0
1663092826,C;S;V;F,15.2,0x00c000,-37.6,0.00e-0
1663092827,C;S;V;F,15.4,0x00c000,-37.6,0.00e-0
1663092828,C;S;V;F,15.5,0x00c000,-37.8,0.00e-0
1663092829,,15.1,0x00c000,-37.9,
1663092830,C;S;V;F,15.2,0x00c000,-37.8,0.00e-0
1663092831,C;S;V;F,,0x00c000,-38.0,0.00e-0
1663092832,C;S;V;F,15.0,0x00c000,-37.9,0.00e-0
1663092833,C;S;V;F,15.0,0x00c000,,0.00e-0
1663092834,C;S;V;F,15.4,0x00c000,-37.6,0.00e-0
1663092835,C;S;V;F,15.1,0x00c000,-37.6,0.00e-0
1663092836,C;S;V;F,14.8,0x00c000,-37.9,0.00e-0
1663092837,C;S;V;F,14.8,0x00c000,-38.2,0.00e-0
1663092838,C;S;V;F,14.5,0x00c000,-38.5,0.00e-0
1663092839,C;S;V;F,15.0,0x00c000,-38.0,0.00e-0
1663092840,C;S;V;F,15.1,0x00c000,-37.9,0.00e-0
1663092841,C;S;V;F,15.1,0x00c000,-38.0,0.00e-0
1663092842,C;S;V;F,14.8,0x00c000,-38.3,0.00e-0
1663092843,C;S;V;F,14.2,0x00c000,-38.9,0.00e-0
1663092844,C;S;V;F,14.3,0x00c000,-38.9,
1663092845,C;S;V;F,14.5,0x00c000,-38.4,0.00e-0
1663092846,,,,,0.00e-0
1663092848,C;S;V;F,14.8,0x00c000,-38.1,
1663092849,,14.7,0x00c000,-38.3,0.00e-0
1663092850,C;S;V;F,14.4,0x00c000,-38.8,0.00e-0
1663092851,C;S;V;F,,0x00c000,-38.3,0.00e-0
1663092852,C;S;V;F,14.5,0x00c000,-37.8,0.00e-0
1663092853,C;S;V;F,14.9,0x00c000,,0.00e-0
1663092854,C;S;V;F,14.7,0x00c000,-38.0,0.00e-0
1663092855,C;S;V;F,14.7,0x00c000,-38.0,0.00e-0
1663092856,C;S;V;F,14.7,0x00c000,-38.1,0.00e-0
1663092857,C;S;V;F,15.6,0x00c000,-36.8,0.00e-0
1663092861,C;S;V;F,15.9,0x00c000,-36.7,0.00e-0
1663092862,,16.5,0x00c000,-36.1,
1663092863,C;S;V;F,16.5,0x00c000,-36.4,0.00e-0
1663092864,C;S;V;F,16.4,0x00c000,-36.1,0.00e-0
1663092865,C;S;V;F,16.5,0x00c000,-35.9,0.00e-0
1663092866,C;S;V;F,,0x00c000,-35.6,0.00e-0
1663092867,C;S;V;F,16.9,0x00c000,-36.0,0.00e-0
1663092868,C;S;V;F,16.8,0x00c000,,0.00e-0
1663092869,C;S;V;F,16.3,0x00c000,-36.4,0.00e-0
1663092870,C;S;V;F,16.2,0x00c000,-36.0,0.00e-0
1663092871,C;S;V;F,16.8,0x00c000,-35.2,0.00e-0
1663092872,C;S;V;F,16.4,0x00c000,-36.3,0.00e-0
1663092873,C;S;V;F,15.8,0x00c000,-36.8,0.00e-0
1663092874,C;S;V;F,16.4,0x00c000,-36.3,0.00e-0
1663092875,C;S;V;F,16.1,0x00c000,-36.8,
1663092876,C;S;V;F,15.3,0x00c000,-37.2,0.00e-0
1663092877,,15.9,0x00c000,-36.5,0.00e-0
1663092878,C;S;V;F,15.9,0x00c000,-37.0,0.00e-0
1663092879,C;S;V;F,15.4,0x00c000,-37.3,0.00e-0
1663092880,C;S;V;F,,0x00c000,-36.3,0.00e-0
1663092881,C;S;V;F,16.1,0x00c000,,0.00e-0
1663092882,C;S;V;F,16.8,0x00c000,-36.3,0.00e-0
1663092883,C;S;V;F,15.9,0x00c000,-36.8,0.00e-0
1663092884,C;S;V;F,15.9,0x00c000,-36.1,0.00e-0
1663092885,C;S;V;F,15.9,0x00c000,-37.1,0.00e-0
1663092886,C;S;V;F,15.4,0x00c000,-37.3,0.00e-0
1663092887,C;S;V;F,16.3,0x00c000,-36.3,0.00e-0
1663092888,C;S;V;F,16.1,0x00c000,-36.9,0.00e-0
1663092889,C;S;V;F,15.6,0x00c000,-37.1,
1663092890,C;S;V;F,16.2,0x00c000,-36.4,0.00e-0
1663092891,,16.2,0x00c000,-36.8,0.00e-0
1663092892,C;S;V;F,16.2,0x00c000,-36.4,0.00e-0
1663092893,C;S;V;F,,0x00c000,-36.8,0.00e-0
1663092894,C;S;V;F,16.3,0x00c000,-37.6,0.00e-0
1663092895,C;S;V;F,15.7,0x00c000,-36.9,0.00e-0
1663092896,C;S;V;F,15.8,0x00c000,,0.00e-0
1663092897,C;S;V;F,15.4,0x00c000,-37.5,0.00e-0
1663092898,C;S;V;F,15.4,0x00c000,-37.4,0.00e-0
1663092899,C;S;V;F,15.3,0x00c000,-37.8,0.00e-0
1663092900,C;S;V;F,15.1,0x00c000,-38.0,0.00e-0
1663092901,C;S;V;F,16.1,0x00c000,-36.7,0.00e-0
1663092902,C;S;V;F,15.7,0x00c000,-37.6,0.00e-0
1663092903,C;S;V;F,15.0,0x00c000,-38.0,
1663092904,,15.2,0x00c000,-37.7,0.00e-0
1663092905,C;S;V;F,,0x00c000,-39.2,0.00e-0
1663092906,C;S;V;F,14.5,0x00c000,,0.00e-0
1663092907,C;S;V;F,14.4,0x00c000,-38.8,0.00e-0
1663092908,C;S;V;F,14.9,0x00c000,-38.3,0.00e-0
1663092909,C;S;V;F,15.4,0x00c000,-37.8,0.00e-0
1663092911,C;S;V;F,15.3,0x00c000,-37.8,
1663092912,,15.4,0x00c000,-37.8,0.00e-0
1663092913,C;S;V;F,,0x00c000,-38.4,0.00e-0
1663092914,C;S;V;F,15.1,0x00c000,,0.00e-0
1663092915,C;S;V;F,14.9,0x00c000,-38.1,0.00e-0
1663092916,C;S;V;F,15.2,0x00c000,-38.1,0.00e-0
1663092917,C;S;V;F,15.5,0x00c000,-37.7,0.00e-0
1663092918,C;S;V;F,15.4,0x00c000,-37.6,
1663092919,,15.3,0x00c000,-37.9,0.00e-0
1663092920,C;S;V;F,15.6,0x00c000,-37.5,0.00e-0
1663092921,C;S;V;F,15.1,0x00c000,-37.9,0.00e-0
1663092922,C;S;V;F,14.8,0x00c000,-38.1,0.00e-0
1663092923,C;S;V;F,14.8,0x00c000,-38.4,0.00e-0
1663092924,C;S;V;F,,0x00c000,-38.7,0.00e-0
1663092925,C;S;V;F,14.4,0x00c000,,0.00e-0
1663092926,C;S;V;F,14.7,0x00c000,-38.2,0.00e-0
1663092927,C;S;V;F,14.9,0x00c000,-38.2,0.00e-0
1663092928,C;S;V;F,15.1,0x00c000,-38.0,0.00e-0
1663092929,C;S;V;F,14.8,0x00c000,-38.1,0.00e-0
1663092930,C;S;V;F,14.7,0x00c000,-38.7,0.00e-0
1663092931,C;S;V;F,14.5,0x00c000,-39.0,0.00e-0
1663092932,C;S;V;F,14.0,0x00c000,-39.4,0.00e-0
1663092933,C;S;V;F,13.6,0x00c000,-40.1,0.00e-0
1663092934,C;S;V;F,13.3,0x00c000,-39.5,
1663092935,,14.3,0x00c000,-38.4,0.00e-0
1663092936,C;S;V;F,,0x00c000,-38.6,0.00e-0
1663092937,C;S;V;F,14.7,0x00c000,,0.00e-0
1663092938,C;S;V;F,14.4,0x00c000,-38.8,0.00e-0
1663092939,C;S;V;F,13.6,0x00c000,-39.6,0.00e-0
1663092940,C;S;V;F,13.5,0x00c000,-39.5,
1663092941,,14.1,0x00c000,-38.8,0.00e-0
1663092942,C;S;V;F,14.3,0x00c000,-38.6,0.00e-0
1663092943,C;S;V;F,,0x00c000,-38.2,0.00e-0
1663092944,C;S;V;F,14.7,0x00c000,-38.0,0.00e-0
1663092945,C;S;V;F,15.1,0x00c000,,0.00e-0
1663092946,C;S;V;F,14.9,0x00c000,-38.4,0.00e-0
1663092947,C;S;V;F,14.8,0x00c000,-38.4,0.00e-0
1663092948,C;S;V;F,14.9,0x00c000,-38.1,0.00e-0
1663092949,C;S;V;F,15.3,0x00c000,-37.7,0.00e-0
1663092950,C;S;V;F,15.8,0x00c000,-37.2,0.00e-0
1663092951,C;S;V;F,16.2,0x00c000,-37.1,0.00e-0
1663092952,C;S;V;F,16.0,0x00c000,-37.0,0.00e-0
1663092953,C;S;V;F,16.2,0x00c000,-36.8,0.00e-0
1663092954,C;S;V;F,16.1,0x00c000,-36.9,0.00e-0
1663092955,,16.3,0x00c000,-36.5,
1663092956,C;S;V;F,16.7,0x00c000,-36.1,0.00e-0
1663092957,C;S;V;F,17.0,0x00c000,-35.8,0.00e-0
1663092958,C;S;V;F,17.2,0x00c000,-35.6,0.00e-0
1663092959,C;S;V;F,,0x00c000,-35.6,0.00e-0
1663092960,C;S;V;F,17.5,0x00c000,-35.8,0.00e-0
1663092961,C;S;V;F,16.9,0x00c000,,0.00e-0
1663092962,C;S;V;F,17.3,0x00c000,-35.5,0.00e-0
1663092963,C;S;V;F,17.3,0x00c000,-35.3,0.00e-0
1663092964,C;S;V;F,17.7,0x00c000,-35.1,0.00e-0
1663092965,C;S;V;F,17.8,0x00c000,-34.9,0.00e-0
1663092966,C;S;V;F,18.1,0x00c000,-34.4,0.00e-0
1663092967,C;S;V;F,18.1,0x00c000,-34.0,0.00e-0
1663092968,C;S;V;F,18.4,0x00c000,-34.3,
1663092969,,18.2,0x00c000,-34.4,0.00e-0
1663092970,C;S;V;F,17.9,0x00c000,-34.3,0.00e-0
1663092971,C;S;V;F,18.1,0x00c000,-34.2,0.00e-0
1663092972,C;S;V;F,,0x00c000,,0.00e-0
1663092974,C;S;V;F,18.2,0x00c000,-33.9,0.00e-0
1663092975,C;S;V;F,18.3,0x00c000,-33.7,0.00e-0
1663092976,C;S;V;F,18.4,0x00c000,-34.0,0.00e-0
1663092977,C;S;V;F,18.1,0x00c000,-34.2,
1663092978,C;S;V;F,18.1,0x00c000,-34.1,0.00e-0
1663092979,,18.2,0x00c000,-34.0,0.00e-0
1663092980,C;S;V;F,18.3,0x00c000,-33.9,0.00e-0
1663092981,C;S;V;F,18.3,0x00c000,-33.9,0.00e-0
1663092982,C;S;V;F,,0x00c000,-33.8,0.00e-0
1663092983,C;S;V;F,18.3,0x00c000,-34.0,0.00e-0
1663092984,C;S;V;F,18.1,0x00c000,,0.00e-0
1663092985,C;S;V;F,18.2,0x00c000,-34.2,0.00e-0
1663092986,C;S;V;F,17.9,0x00c000,-34.7,0.00e-0
1663092987,C;S;V;F,17.9,0x00c000,-34.7,0.00e-0
1663092988,C;S;V;F,17.9,0x00c000,-34.7,0.00e-0
1663092989,C;S;V;F,17.9,0x00c000,-34.8,0.00e-0
1663092990,C;S;V;F,17.7,0x00c000,-34.8,0.00e-0
1663092991,C;S;V;F,17.6,0x00c000,-35.0,0.00e-0
1663092992,C;S;V;F,17.5,0x00c000,-35.2,0.00e-0
1663092993,C;S;V;F,17.5,0x00c000,-35.4,
1663092994,,17.6,0x00c000,-35.4,0.00e-0
1663092995,C;S;V;F,17.6,0x00c000,-35.2,0.00e-0
1663092996,C;S;V;F,17.6,0x00c000,-35.3,0.00e-0
1663092997,C;S;V;F,,0x00c000,,0.00e-0
1663092998,C;S;V;F,17.5,0x00c000,-35.3,0.00e-0
1663092999,C;S;V;F,17.3,0x00c000,-35.4,0.00e-0
1663093000,C;S;V;F,17.4,0x00c000,-35.4,0.00e-0
1663093001,C;S;V;F,17.4,0x00c000,-35.4,0.00e-0
1663093002,C;S;V;F,17.3,0x00c000,-35.5,0.00e-0
1663093003,C;S;V;F,17.0,0x00c000,-35.6,0.00e-0
1663093004,C;S;V;F,17.0,0x00c000,-35.8,0.00e-0
1663093005,C;S;V;F,17.0,0x00c000,-36.2,0.00e-0
1663093006,C;S;V;F,16.6,0x00c000,-36.4,0.00e-0
1663093007,C;S;V;F,16.5,0x00c000,-36.6,
1663093008,,16.4,0x00c000,-36.7,0.00e-0
1663093009,C;S;V;F,16.4,0x00c000,-36.6,0.00e-0
1663093010,C;S;V;F,,0x00c000,-36.9,0.00e-0
1663093011,C;S;V;F,16.1,0x00c000,-37.1,0.00e-0
1663093012,C;S;V;F,16.2,0x00c000,,0.00e-0
1663093013,C;S;V;F,15.6,0x00c000,-37.3,0.00e-0
1663093014,C;S;V;F,15.7,0x00c000,-37.5,0.00e-0
1663093015,C;S;V;F,15.4,0x00c000,-37.7,0.00e-0
1663093016,C;S;V;F,15.2,0x00c000,-37.7,0.00e-0
1663093017,C;S;V;F,14.9,0x00c000,-38.0,0.00e-0
1663093018,C;S;V;F,14.9,0x00c000,-38.3,0.00e-0
1663093019,C;S;V;F,14.7,0x00c000,-38.6,0.00e-0
1663093020,,14.7,0x00c000,-38.8,
1663093021,C;S;V;F,14.3,0x00c000,-38.8,0.00e-0
1663093022,C;S;V;F,,0x00c000,-39.1,0.00e-0
1663093023,C;S;V;F,14.3,0x00c000,-39.2,0.00e-0
1663093024,C;S;V;F,13.8,0x00c000,,0.00e-0
1663093025,C;S;V;F,13.6,0x00c000,-39.6,0.00e-0
1663093026,C;S;V;F,13.1,0x00c000,-39.9,0.00e-0
1663093027,C;S;V;F,13.3,0x00c000,-40.0,0.00e-0
1663093028,C;S;V;F,13.5,0x00c000,-40.0,0.00e-0
1663093029,C;S;V;F,13.4,0x00c000,-39.9,0.00e-0
1663093030,C;S;V;F,13.7,0x00c000,-39.6,0.00e-0
1663093031,C;S;V;F,13.5,0x00c000,-39.8,0.00e-0
1663093032,C;S;V;F,13.3,0x00c000,-39.8,0.00e-0
1663093033,C;S;V;F,13.4,0x00c000,-39.9,0.00e-0
1663093034,C;S;V;F,13.4,0x00c000,-39.9,
1663093035,,,,,0.00e-0
1663093037,C;S;V;F,13.6,0x00c000,-39.6,0.00e-0
1663093038,C;S;V;F,13.9,0x00c000,-39.3,0.00e-0
1663093039,C;S;V;F,14.3,0x00c000,-38.8,0.00e-0
1663093040,C;S;V;F,14.6,0x00c000,-38.6,0.00e-0
1663093041,C;S;V;F,14.5,0x00c000,-38.4,0.00e-0
1663093042,C;S;V;F,14.5,0x00c000,-38.5,0.00e-0
1663093043,,14.8,0x00c000,-38.3,
1663093044,C;S;V;F,14.8,0x00c000,-38.4,0.00e-0
1663093045,C;S;V;F,,0x00c000,-38.6,0.00e-0
1663093046,C;S;V;F,14.6,0x00c000,,0.00e-0
1663093047,C;S;V;F,14.7,0x00c000,-38.4,0.00e-0
1663093048,C;S;V;F,14.6,0x00c000,-38.3,0.00e-0
1663093049,C;S;V;F,14.8,0x00c000,-38.1,0.00e-0
1663093050,C;S;V;F,15.2,0x00c000,-38.0,0.00e-0
1663093051,C;S;V;F,14.8,0x00c000,-38.2,0.00e-0
1663093052,C;S;V;F,14.9,0x00c000,-38.1,0.00e-0
1663093053,C;S;V;F,14.8,0x00c000,-38.2,0.00e-0
1663093054,C;S;V;F,14.8,0x00c000,-38.3,0.00e-0
1663093055,,14.5,0x00c000,-38.6,
1663093056,C;S;V;F,14.7,0x00c000,-38.3,0.00e-0
1663093057,C;S;V;F,15.0,0x00c000,-37.9,0.00e-0
1663093058,C;S;V;F,,0x00c000,,0.00e-0
1663093059,C;S;V;F,15.3,0x00c000,-37.9,0.00e-0
1663093060,C;S;V;F,15.5,0x00c000,-37.6,0.00e-0
1663093061,C;S;V;F,15.5,0x00c000,-37.6,0.00e-0
1663093062,C;S;V;F,15.5,0x00c000,-37.7,0.00e-0
1663093063,C;S;V;F,15.7,0x00c000,-37.6,0.00e-0
1663093064,C;S;V;F,15.3,0x00c000,-37.5,0.00e-0
1663093065,C;S;V;F,15.5,0x00c000,-37.5,0.00e-0
1663093066,C;S;V;F,15.1,0x00c000,-37.9,0.00e-0
1663093067,C;S;V;F,15.1,0x00c000,-38.0,
1663093068,,15.0,0x00c000,-38.0,0.00e-0
1663093069,C;S;V;F,15.1,0x00c000,-37.9,0.00e-0
1663093070,C;S;V;F,15.2,0x00c000,-37.9,0.00e-0
1663093071,C;S;V;F,,0x00c000,-37.7,0.00e-0
1663093072,C;S;V;F,15.6,0x00c000,-37.4,0.00e-0
1663093073,C;S;V;F,15.5,0x00c000,,0.00e-0
1663093074,C;S;V;F,15.7,0x00c000,-37.3,0.00e-0
1663093075,C;S;V;F,15.6,0x00c000,-37.3,0.00e-0
1663093076,C;S;V;F,15.5,0x00c000,-37.2,0.00e-0
1663093077,C;S;V;F,15.8,0x00c000,-37.1,0.00e-0
1663093078,C;S;V;F,15.6,0x00c000,-37.2,0.00e-0
1663093079,C;S;V;F,15.6,0x00c000,-37.2,0.00e-0
1663093080,C;S;V;F,15.5,0x00c000,-37.2,
1663093081,,15.5,0x00c000,-37.5,0.00e-0
1663093082,C;S;V;F,15.5,0x00c000,-37.7,0.00e-0
1663093083,C;S;V;F,15.2,0x00c000,-37.9,0.00e-0
1663093084,C;S;V;F,,0x00c000,-37.9,0.00e-0
1663093085,C;S;V;F,15.3,0x00c000,,0.00e-0
1663093086,C;S;V;F,15.1,0x00c000,-37.8,0.00e-0
1663093087,C;S;V;F,15.3,0x00c000,-37.9,0.00e-0
1663093088,C;S;V;F,15.5,0x00c000,-37.7,0.00e-0
1663093089,C;S;V;F,15.4,0x00c000,-37.5,0.00e-0
1663093090,C;S;V;F,15.5,0x00c000,-37.5,0.00e-0
1663093091,C;S;V;F,15.8,0x00c000,-37.4,0.00e-0
1663093092,C;S;V;F,15.7,0x00c000,-37.1,0.00e-0
1663093093,C;S;V;F,16.1,0x00c000,-37.1,0.00e-0
1663093094,C;S;V;F,15.9,0x00c000,-36.8,0.00e-0
1663093095,C;S;V;F,16.2,0x00c000,-36.7,
1663093096,,16.0,0x00c000,-36.9,0.00e-0
1663093097,C;S;V;F,,0x00c000,,0.00e-0
1663093098,,,0x00c000,-37.2,
1663093099,C;S;V;F,15.7,0x00c000,-37.1,0.00e-0
1663093100,C;S;V;F,15.8,0x00c000,,0.00e-0
1663093101,C;S;V;F,15.8,0x00c000,-37.1,0.00e-0
1663093102,C;S;V;F,15.9,0x00c000,-37.1,0.00e-0
1663093103,C;S;V;F,15.9,0x00c000,-37.2,0.00e-0
1663093104,C;S;V;F,15.8,0x00c000,-37.0,0.00e-0
1663093105,C;S;V;F,15.9,0x00c000,-37.1,0.00e-0